Regional Weather Roundup
Issued by NWS State College, PA

Home | Current Version | Previous Version | Graphics & Text | Print | Product List | Glossary Off
Versions: 1 2 3 4 5 6 7 8 9 10 11 12 13 14 15 16 17 18 19 20 21 22 23 24 25 26 27 28 29 30 31 32 33 34 35 36 37 38 39 40 41 42 43 44 45 46 47 48 49 50

000
ASUS41 KCTP 222310
RWRCTP

REGIONAL WEATHER ROUNDUP
NATIONAL WEATHER SERVICE STATE COLLEGE PA
700 PM EDT SAT JUL 22 2017

Note: "fair" indicates few or no clouds below 12,000 feet with no
significant weather and/or obstructions to visibility.

* = STATION THAT DOES NOT REPORT PRECIPITATION /E.G. RAIN...SNOW...ETC/
    THUNDER OR FOG.

PAZ002>004-007>009-013>016-020>023-029>032-230000-
WESTERN PENNSYLVANIA

CITY           SKY/WX    TMP DP  RH WIND       PRES   REMARKS
ERIE           CLOUDY    76  69  79 NE6       29.77S
MEADVILLE      CLOUDY    76  71  85 W5        29.80S
FRANKLIN*      CLOUDY    73  68  83 SW5       29.81S
NEW CASTLE     MOCLDY    76  73  91 SW6       29.80S
BEAVER COUNTY  NOT AVBL
BUTLER*        CLOUDY    75  70  83 SW5       29.81S
PITTSBURGH INT CLOUDY    74  72  93 CALM      29.81R
PITTSBURGH     CLOUDY    73  69  87 SW5       29.81S
INDIANA*       CLOUDY    75  72  88 SW6       29.84S
LATROBE        LGT RAIN  73  73 100 SW12      29.82S
WASHINGTON CO* CLOUDY    73  70  88 CALM      29.82S
$$

PAZ004>006-010>012-017>019-024>028-033>037-041-042-045-046-049>053-230000-
CENTRAL PENNSYLVANIA

CITY           SKY/WX    TMP DP  RH WIND       PRES   REMARKS
BRADFORD       CLOUDY    74  65  73 SE6       29.82S
DUBOIS         CLOUDY    71  68  90 SW6       29.83R
CLEARFIELD     CLOUDY    71  70  96 W3        29.82R
JOHNSTOWN      LGT RAIN  72  67  84 SW8       29.86R
ALTOONA        CLOUDY    76  71  85 SW6       29.82R
STATE COLLEGE  CLOUDY    72  70  94 W6        29.79F FOG
WILLIAMSPORT   LGT RAIN  74  74 100 N7        29.76S
SELINSGROVE    LGT RAIN  70  70 100 E6        29.77F FOG
FT INDIANTOWN  RAIN      73  73 100 NE5       29.75S FOG
CAPITAL CITY   PTSUNNY   81  69  67 SW14      29.75R
HARRISBURG     CLOUDY    82  71  69 W10G21    29.74R
YORK           CLOUDY    78  71  79 SW8       29.76F
$$

PAZ038>040-043-044-047-048-054-055-060>062-067>071-230000-
EASTERN PENNSYLVANIA

CITY           SKY/WX    TMP DP  RH WIND       PRES   REMARKS
SCRANTON       LGT RAIN  75  71  87 CALM      29.79S FOG
MOUNT POCONO   CLOUDY    73  67  81 E7        29.85S
ALLENTOWN      RAIN      78  72  81 CALM      29.76S
QUAKERTOWN*    CLOUDY    75  73  94 S5        29.78F
READING        CLOUDY    75  73  93 S5        29.73F
LANCASTER      CLOUDY    80  74  81 E6        29.75F
COATESVILLE    PTCLDY    79  73  83 VRB5      29.78F
POTTSTOWN      MOSUNNY   74  74 100 CALM      29.77F
BLUE BELL      CLOUDY    72  72 100 CALM      29.78F
DOYLESTOWN     RAIN      73  71  93 VRB6      29.78S FOG
WILLOW GROVE   NOT AVBL
NORTH PHILA    TSTM      77  74  90 CALM      29.78R
PHILADELPHIA   PTSUNNY   84  70  62 VRB7      29.75R THUNDER
$$




USA.gov is the U.S. government's official web portal to all federal, state and local government web resources and services.